Wheaton, MN

8:19 PM CDT on August 27, 2016 (GMT -0500)
Wheaton Municipal

Weather History for KETH - January, 2013

Change the Weather History Date:

Sunday, January 27, 2013

  Actual Average Record
Temperature  
Mean Temperature 20 °F -  
Max Temperature 30 °F 20 °F 49 °F (1989)
Min Temperature 10 °F 1 °F -23 °F (2004)
Degree Days  
Heating Degree Days 45    
Moisture  
Dew Point 20 °F    
Average Humidity 89    
Maximum Humidity 100    
Minimum Humidity 80    
Precipitation  
Precipitation 0.00 in - - ()
Sea Level Pressure  
Sea Level Pressure 29.85 in    
Wind  
Wind Speed 7 mph (ESE)    
Max Wind Speed 14 mph    
Max Gust Speed -    
Visibility 8 miles    
Events Fog    
Averages and records for this station are not official NWS values.
T = Trace of Precipitation, MM = Missing Value Source: NWS Daily Summary

Daily Weather History Graph

Daily Weather History Graph

Search for Another Location

Airport or City:

Trip Planner

Search our weather history database for the weather conditions in past years. The results will help you decide how hot, cold, wet, or windy it might be!

Date:

Astronomy

Jan. 27, 2013 Rise Set
Actual Time 7:53 AM CST 5:25 PM CST
Civil Twilight 7:21 AM CST 5:57 PM CST
Nautical Twilight 6:45 AM CST 6:33 PM CST
Astronomical Twilight 6:09 AM CST 7:08 PM CST
Moon 6:26 PM CST (1/27) 7:42 AM CST (1/27)
Length of Visible Light 10h 36m
Length of Day
9h 32m
Full, 100% of the Moon is Illuminated
Jan 27
Full
Feb 3
Last Quarter
Feb 10
New
Feb 17
First Quarter
Feb 25
Full

Hourly Weather History & Observations

Time (CST) Temp. Windchill Dew Point Humidity Pressure Visibility Wind Dir Wind Speed Gust Speed Precip Events Conditions
12:14 AM 12.2 °F 4.3 °F 8.6 °F 85% 30.00 in 10.0 mi SE 4.6 mph - N/A   Clear
12:34 AM 10.4 °F - 6.8 °F 85% 30.00 in 10.0 mi Calm Calm - N/A   Clear
12:54 AM 12.2 °F - 8.6 °F 85% 29.99 in 10.0 mi Calm Calm - N/A   Clear
1:15 AM 12.2 °F 2.9 °F 8.6 °F 85% 29.98 in 10.0 mi SE 5.8 mph - N/A   Clear
1:34 AM 12.2 °F 2.9 °F 8.6 °F 85% 29.98 in 10.0 mi SE 5.8 mph - N/A   Clear
1:55 AM 12.2 °F 0.7 °F 8.6 °F 85% 29.97 in 10.0 mi SE 8.1 mph - N/A   Clear
2:15 AM 12.2 °F 1.7 °F 8.6 °F 85% 29.96 in 10.0 mi SE 6.9 mph - N/A   Clear
2:34 AM 10.4 °F -1.5 °F 6.8 °F 85% 29.96 in 10.0 mi ESE 8.1 mph - N/A   Clear
2:55 AM 10.4 °F -1.5 °F 8.6 °F 92% 29.96 in 10.0 mi ESE 8.1 mph - N/A   Clear
3:15 AM 12.2 °F 1.7 °F 8.6 °F 85% 29.95 in 10.0 mi ESE 6.9 mph - N/A   Clear
3:34 AM 12.2 °F 1.7 °F 8.6 °F 85% 29.93 in 10.0 mi ESE 6.9 mph - N/A   Clear
3:54 AM 12.2 °F -0.2 °F 10.4 °F 92% 29.92 in 10.0 mi ESE 9.2 mph - N/A   Clear
4:14 AM 12.2 °F -0.2 °F 8.6 °F 85% 29.92 in 10.0 mi ESE 9.2 mph - N/A   Clear
4:34 AM 12.2 °F 0.7 °F 8.6 °F 85% 29.91 in 10.0 mi ESE 8.1 mph - N/A   Clear
4:54 AM 12.2 °F 0.7 °F 8.6 °F 85% 29.90 in 10.0 mi ESE 8.1 mph - N/A   Clear
5:14 AM 14.0 °F 2.9 °F 10.4 °F 86% 29.90 in 10.0 mi SE 8.1 mph - N/A   Clear
5:55 AM 14.0 °F 2.9 °F 10.4 °F 86% 29.89 in 10.0 mi SE 8.1 mph - N/A   Clear
6:15 AM 14.0 °F 3.9 °F 10.4 °F 86% 29.89 in 10.0 mi SE 6.9 mph - N/A   Clear
6:35 AM 15.8 °F 5.1 °F 12.2 °F 86% 29.89 in 10.0 mi SE 8.1 mph - N/A   Clear
6:55 AM 15.8 °F 7.2 °F 12.2 °F 86% 29.88 in 10.0 mi ESE 5.8 mph - N/A   Clear
7:15 AM 15.8 °F 6.1 °F 12.2 °F 86% 29.89 in 10.0 mi SE 6.9 mph - N/A   Clear
7:35 AM 15.8 °F 6.1 °F 12.2 °F 86% 29.89 in 10.0 mi SE 6.9 mph - N/A   Clear
7:55 AM 17.6 °F 9.3 °F 14.0 °F 86% 29.89 in 10.0 mi SE 5.8 mph - N/A   Clear
8:15 AM 17.6 °F 9.3 °F 14.0 °F 86% 29.89 in 10.0 mi SE 5.8 mph - N/A   Clear
8:35 AM 17.6 °F 10.7 °F 14.0 °F 86% 29.87 in 10.0 mi SE 4.6 mph - N/A   Clear
8:54 AM 15.8 °F 8.6 °F 12.2 °F 86% 29.87 in 10.0 mi ESE 4.6 mph - N/A   Clear
9:15 AM 17.6 °F 12.3 °F 15.8 °F 93% 29.86 in 10.0 mi East 3.5 mph - N/A   Clear
9:35 AM 19.4 °F 12.8 °F 17.6 °F 93% 29.85 in 10.0 mi East 4.6 mph - N/A   Clear
9:55 AM 21.2 °F 13.6 °F 19.4 °F 93% 29.85 in 10.0 mi ESE 5.8 mph - N/A   Clear
10:15 AM 24.8 °F 16.1 °F 19.4 °F 80% 29.85 in 10.0 mi ESE 8.1 mph - N/A   Clear
10:36 AM 24.8 °F 15.3 °F 21.2 °F 86% 29.86 in 10.0 mi SE 9.2 mph - N/A   Clear
10:54 AM 26.6 °F 16.8 °F 21.2 °F 80% 29.86 in 10.0 mi SE 10.4 mph - N/A   Clear
11:15 AM 26.6 °F 16.8 °F 21.2 °F 80% 29.85 in 10.0 mi SE 10.4 mph - N/A   Clear
11:35 AM 28.4 °F 17.5 °F 23.0 °F 80% 29.85 in 10.0 mi SE 13.8 mph - N/A   Clear
11:55 AM 28.4 °F 17.5 °F 23.0 °F 80% 29.84 in 10.0 mi SE 13.8 mph - N/A   Scattered Clouds
12:15 PM 28.4 °F 18.5 °F 24.8 °F 86% 29.83 in 10.0 mi SE 11.5 mph - N/A   Scattered Clouds
12:34 PM 28.4 °F 18.0 °F 24.8 °F 86% 29.83 in 10.0 mi SE 12.7 mph - N/A   Scattered Clouds
12:55 PM 30.2 °F 20.2 °F 24.8 °F 80% 29.82 in 10.0 mi ESE 12.7 mph - N/A   Overcast
1:15 PM 30.2 °F 20.2 °F 24.8 °F 80% 29.81 in 10.0 mi SE 12.7 mph - N/A   Overcast
1:35 PM 30.2 °F 20.2 °F 24.8 °F 80% 29.80 in 10.0 mi SE 12.7 mph - N/A   Overcast
1:55 PM 30.2 °F 21.3 °F 26.6 °F 86% 29.80 in 10.0 mi ESE 10.4 mph - N/A   Overcast
2:15 PM 30.2 °F 21.9 °F 26.6 °F 86% 29.79 in 10.0 mi ESE 9.2 mph - N/A   Overcast
2:34 PM 30.2 °F 20.8 °F 26.6 °F 86% 29.79 in 10.0 mi ESE 11.5 mph - N/A   Overcast
2:54 PM 30.2 °F 20.2 °F 26.6 °F 86% 29.79 in 10.0 mi ESE 12.7 mph - N/A   Overcast
3:14 PM 30.2 °F 20.2 °F 28.4 °F 93% 29.78 in 10.0 mi ESE 12.7 mph - N/A   Overcast
3:34 PM 30.2 °F 20.2 °F 28.4 °F 93% 29.79 in 10.0 mi ESE 12.7 mph - N/A   Overcast
3:55 PM 30.2 °F 20.2 °F 28.4 °F 93% 29.79 in 10.0 mi ESE 12.7 mph - N/A   Overcast
4:15 PM 30.2 °F 20.8 °F 28.4 °F 93% 29.79 in 7.0 mi SE 11.5 mph - N/A   Overcast
4:34 PM 30.2 °F 21.3 °F 28.4 °F 93% 29.79 in 5.0 mi ESE 10.4 mph - N/A   Overcast
4:54 PM 30.2 °F 21.9 °F 28.4 °F 93% 29.79 in 2.5 mi ESE 9.2 mph - N/A   Overcast
5:15 PM 30.2 °F 21.3 °F 28.4 °F 93% 29.79 in 2.0 mi ESE 10.4 mph - N/A   Overcast
5:54 PM 30.2 °F 22.6 °F 28.4 °F 93% 29.80 in 1.8 mi ESE 8.1 mph - N/A   Overcast
6:14 PM 30.2 °F 23.4 °F 28.4 °F 93% 29.80 in 1.8 mi ESE 6.9 mph - N/A   Overcast
6:34 PM 30.2 °F 23.4 °F 28.4 °F 93% 29.79 in 1.5 mi ESE 6.9 mph - N/A   Overcast
6:54 PM 30.2 °F 21.9 °F 28.4 °F 93% 29.79 in 1.5 mi ESE 9.2 mph - N/A   Overcast
7:14 PM 30.2 °F 21.3 °F 28.4 °F 93% 29.78 in 1.2 mi ESE 10.4 mph - N/A   Overcast
7:34 PM 30.2 °F 20.8 °F 28.4 °F 93% 29.78 in 1.5 mi ESE 11.5 mph - N/A   Overcast
7:55 PM 30.2 °F 21.9 °F 28.4 °F 93% 29.78 in 2.0 mi ESE 9.2 mph - N/A   Overcast
8:14 PM 30.2 °F 23.4 °F 28.4 °F 93% 29.78 in 2.5 mi ESE 6.9 mph - N/A   Overcast
8:34 PM 30.2 °F 24.3 °F 28.4 °F 93% 29.79 in 2.0 mi ESE 5.8 mph - N/A   Overcast
8:55 PM 30.2 °F 23.4 °F 28.4 °F 93% 29.79 in 2.5 mi ESE 6.9 mph - N/A   Overcast
9:15 PM 30.2 °F 23.4 °F 28.4 °F 93% 29.78 in 4.0 mi ESE 6.9 mph - N/A   Overcast
9:35 PM 30.2 °F 23.4 °F 28.4 °F 93% 29.78 in 4.0 mi ESE 6.9 mph - N/A   Overcast
9:55 PM 30.2 °F 25.4 °F 28.4 °F 93% 29.79 in 4.0 mi SE 4.6 mph - N/A   Overcast
10:15 PM 28.4 °F - 28.4 °F 100% 29.79 in 4.0 mi Calm Calm - N/A   Overcast
10:34 PM 28.4 °F - 28.4 °F 100% 29.79 in 4.0 mi Calm Calm - N/A   Overcast
10:54 PM 28.4 °F - 28.4 °F 100% 29.80 in 2.5 mi Calm Calm - N/A   Overcast
11:15 PM 28.4 °F 23.3 °F 28.4 °F 100% 29.79 in 1.0 mi East 4.6 mph - N/A   Overcast
11:35 PM 28.4 °F - 28.4 °F 100% 29.80 in 0.5 mi Calm Calm - N/A Fog Light Freezing Fog
11:55 PM 28.4 °F 23.3 °F 28.4 °F 100% 29.79 in 0.2 mi East 4.6 mph - N/A Fog Light Freezing Fog